Natchez, MS

12:23 PM CST on November 17, 2019 (GMT -0600)
Hardy-Anders-Adams County

Weather History for KHEZ - September, 2019

Change the Weather History Date:

Sunday, September 22, 2019

  Actual Average Record
Temperature  
Mean Temperature 82 °F -  
Max Temperature 91 °F 86 °F 95 °F (1936)
Min Temperature 72 °F 64 °F 43 °F (1983)
Cooling Degree Days 16    
Growing Degree Days 32 (Base 50)    
Moisture  
Dew Point 69 °F    
Average Humidity 67    
Maximum Humidity 91    
Minimum Humidity 43    
Precipitation  
Precipitation 0.00 in - - ()
Sea Level Pressure  
Sea Level Pressure 30.09 in    
Wind  
Wind Speed 6 mph (SSE)    
Max Wind Speed 15 mph    
Max Gust Speed -    
Visibility 10 miles    
Events      
Averages and records for this station are not official NWS values.
T = Trace of Precipitation, MM = Missing Value Source: NWS Daily Summary

Daily Weather History Graph

Daily Weather History Graph

Search for Another Location

Airport or City:

Astronomy

Sep. 22, 2019 Rise Set
Actual Time 6:53 AM CDT 7:02 PM CDT
Civil Twilight 6:29 AM CDT 7:26 PM CDT
Nautical Twilight 6:00 AM CDT 7:54 PM CDT
Astronomical Twilight 5:32 AM CDT 8:23 PM CDT
Moon 12:05 AM CDT (9/22) 2:34 PM CDT (9/22)
Length of Visible Light 12h 57m
Length of Day
12h 08m
Last Quarter, 44% of the Moon is Illuminated
Sep 22
Last Quarter
Sep 28
New
Oct 5
First Quarter
Oct 13
Full
Oct 21
Last Quarter

Hourly Weather History & Observations

Time (CDT) Temp. Heat Index Dew Point Humidity Pressure Visibility Wind Dir Wind Speed Gust Speed Precip Events Conditions
12:56 AM 73.0 °F - 70.0 °F 90% 30.11 in 10.0 mi South 5.8 mph - N/A   Clear
1:56 AM 73.9 °F - 70.0 °F 87% 30.11 in 10.0 mi South 3.5 mph - N/A   Scattered Clouds
2:56 AM 73.9 °F - 71.1 °F 91% 30.12 in 10.0 mi SE 4.6 mph - N/A   Overcast
3:56 AM 73.9 °F - 71.1 °F 91% 30.11 in 10.0 mi South 3.5 mph - N/A   Overcast
4:56 AM 73.9 °F - 71.1 °F 91% 30.11 in 10.0 mi SE 3.5 mph - N/A   Overcast
6:56 AM 72.0 °F - 69.1 °F 91% 30.12 in 10.0 mi Calm Calm - N/A   Partly Cloudy
7:56 AM 73.9 °F - 69.1 °F 85% 30.13 in 10.0 mi SSE 5.8 mph - N/A   Clear
8:56 AM 79.0 °F - 69.1 °F 72% 30.13 in 10.0 mi SSE 6.9 mph - N/A   Clear
9:56 AM 82.0 °F 84.5 °F 66.9 °F 60% 30.13 in 10.0 mi SSE 10.4 mph - N/A   Clear
10:27 AM 84.2 °F 86.6 °F 66.2 °F 55% 30.13 in 10.0 mi SSE 15.0 mph - N/A   Scattered Clouds
10:56 AM 84.0 °F 86.5 °F 66.9 °F 56% 30.13 in 10.0 mi SSE 11.5 mph - N/A   Partly Cloudy
11:56 AM 86.0 °F 88.8 °F 66.9 °F 53% 30.12 in 10.0 mi South 8.1 mph - N/A   Clear
12:56 PM 87.1 °F 88.9 °F 64.9 °F 48% 30.09 in 10.0 mi SE 10.4 mph - N/A   Clear
1:56 PM 89.1 °F 91.3 °F 66.0 °F 46% 30.07 in 10.0 mi SE 5.8 mph - N/A   Clear
2:56 PM 90.0 °F 92.8 °F 66.9 °F 46% 30.05 in 10.0 mi ESE 8.1 mph - N/A   Clear
4:27 PM 91.4 °F 94.0 °F 66.2 °F 43% 30.04 in 10.0 mi South 8.1 mph - N/A   Mostly Cloudy
4:48 PM 91.4 °F 94.0 °F 66.2 °F 43% 30.04 in 10.0 mi South 11.5 mph - N/A   Scattered Clouds
4:56 PM 90.0 °F 93.6 °F 68.0 °F 48% 30.03 in 10.0 mi South 10.4 mph - N/A   Partly Cloudy
5:56 PM 89.1 °F 92.9 °F 68.0 °F 50% 30.03 in 10.0 mi South 5.8 mph - N/A   Unknown
6:48 PM 84.2 °F 88.4 °F 69.8 °F 62% 30.04 in 10.0 mi South 5.8 mph - N/A   Partly Cloudy
6:56 PM 84.0 °F 87.8 °F 69.1 °F 61% 30.04 in 10.0 mi South 5.8 mph - N/A   Clear
7:13 PM 82.4 °F 86.3 °F 69.8 °F 66% 30.04 in 10.0 mi South 3.5 mph - N/A   Partly Cloudy
7:56 PM 80.1 °F 83.2 °F 70.0 °F 71% 30.05 in 10.0 mi Calm Calm - N/A   Clear
8:56 PM 78.1 °F - 70.0 °F 76% 30.07 in 10.0 mi SE 3.5 mph - N/A   Mostly Cloudy
9:56 PM 77.0 °F - 69.1 °F 76% 30.09 in 10.0 mi Calm Calm - N/A   Clear
10:56 PM 75.0 °F - 69.1 °F 82% 30.09 in 10.0 mi SSE 4.6 mph - N/A   Clear
11:56 PM 75.0 °F - 69.1 °F 82% 30.09 in 10.0 mi South 8.1 mph - N/A   Clear